Theta_e
341 341 345 345 346 344 345 346 346 345 344 345 345 342 339 338 337 336 335 335 337 340 339 339 337 337 336 333 331 329 328 326 325 322 322 326 330 330 331 328 329 328 331
341 346 344 346 345 344 345 345 345 345 344 343 343 343 340 340 338 336 336 334 333 338 340 339 338 337 335 334 329 328 328 323 322 320 322 322 325 329 328 325 326 329 329
343 346 347 344 344 344 345 346 345 344 343 342 341 341 340 340 339 339 339 338 337 336 336 339 338 337 336 332 328 330 327 321 321 324 324 326 325 327 329 327 331 329 328
344 348 349 345 344 344 345 345 344 342 340 340 340 339 339 338 338 338 336 333 332 334 335 338 339 337 335 326 327 328 324 325 322 326 329 330 329 328 328 328 330 331 330
347 345 347 344 343 343 344 343 342 341 339 338 338 337 335 335 334 334 332 332 331 332 333 337 338 336 331 323 326 327 326 327 327 328 328 330 331 331 333 334 333 329 331
346 346 345 343 342 342 342 342 342 340 338 337 336 335 334 334 331 332 332 332 331 331 332 335 338 333 328 324 330 329 327 327 328 328 330 331 333 334 334 335 335 334 335
345 344 344 344 342 342 341 341 340 339 338 337 336 335 334 333 331 332 332 332 331 332 337 336 333 331 328 324 329 328 327 327 327 328 332 333 334 334 334 333 334 334 333
346 344 345 343 342 342 340 339 339 339 338 338 338 337 335 332 330 330 331 332 332 332 335 333 330 329 323 322 327 327 328 327 328 327 328 331 332 332 330 332 332 331 329
346 344 344 343 342 338 339 339 339 339 339 340 338 336 334 331 329 329 330 332 333 333 332 330 329 325 324 324 323 326 328 328 328 327 329 331 330 330 331 331 328 328 327
343 343 342 340 338 338 339 339 339 338 338 338 336 335 332 328 325 327 325 330 332 332 331 328 325 327 328 324 324 326 328 328 327 327 328 328 329 329 330 329 327 325 324
342 343 341 340 339 337 337 338 338 337 336 336 335 334 331 327 326 325 324 327 330 331 327 325 327 329 326 326 326 327 328 327 326 325 324 326 327 330 327 327 324 323 321
341 343 342 341 339 338 337 337 335 335 335 335 334 333 330 328 325 321 323 326 326 324 324 326 328 327 326 325 325 323 324 326 325 322 321 323 327 327 325 323 322 319 317
340 340 340 342 339 338 335 333 330 330 331 333 333 331 329 328 329 327 322 325 327 324 327 328 327 327 326 325 324 321 322 323 322 319 316 317 328 325 322 320 318 316 315
340 340 339 340 339 338 335 331 328 328 328 328 330 330 329 329 330 331 329 323 323 323 325 327 327 327 326 326 322 320 319 318 317 314 313 317 326 323 319 316 315 314 313
340 340 339 339 340 338 336 331 329 328 326 325 327 329 329 330 331 332 332 330 323 324 325 326 326 327 324 325 321 316 315 314 312 310 307 309 324 321 317 315 313 311 311
340 339 339 339 340 339 337 334 331 329 327 325 326 327 331 331 330 331 331 332 328 323 324 326 326 327 322 324 318 314 312 309 307 306 309 321 322 316 314 312 310 309 309
339 341 340 339 339 341 338 336 334 331 330 327 326 327 328 330 331 330 329 330 331 327 324 325 326 325 320 317 313 310 309 307 305 305 308 314 315 312 310 309 307 307 306
319 333 339 340 341 343 339 338 336 334 332 331 328 327 327 328 329 330 329 329 331 330 326 325 326 326 319 315 311 309 307 305 304 304 306 309 309 308 306 305 305 303 303
316 316 323 335 339 341 341 339 338 337 335 333 332 331 328 327 326 328 328 328 331 331 329 325 325 325 320 313 310 308 305 302 302 303 305 305 305 304 302 300 299 297 297
315 315 316 323 333 339 339 338 337 336 336 335 334 333 332 331 329 326 326 327 330 332 330 325 325 323 319 313 307 304 302 301 301 302 304 304 302 301 300 299 297 296 295
314 313 314 315 318 335 338 336 335 336 336 335 335 335 335 334 333 332 328 325 327 329 331 326 324 321 314 309 304 300 300 300 300 301 303 303 301 301 299 298 297 296 295
312 313 313 314 315 323 335 335 336 336 336 336 335 335 335 335 335 334 332 327 324 328 330 328 324 317 311 308 304 302 305 301 300 300 301 302 301 300 298 297 297 295 295
308 310 311 313 314 315 327 335 336 336 335 335 334 334 337 336 336 335 334 331 325 326 329 329 324 322 310 305 304 305 304 308 300 298 299 300 299 299 298 297 296 295 294
306 307 308 310 311 313 315 333 334 334 334 334 333 334 336 336 335 336 335 332 329 325 327 328 324 321 317 309 301 302 301 301 304 300 295 297 298 297 297 296 295 294 293
307 307 307 308 309 311 312 325 331 333 333 333 333 333 334 335 334 334 334 333 332 330 327 327 322 319 317 312 308 300 297 297 296 297 299 294 295 296 295 294 293 292 292
309 309 308 307 307 308 309 311 328 332 333 332 333 333 333 334 331 330 331 331 330 330 328 326 323 319 316 313 312 309 305 298 297 296 294 292 295 293 293 292 292 292 291
Wind_Speed
15 26 22 21 20 20 19 18 19 17 14 13 14 13 13 12 11 10 9 9 10 10 11 11 12 13 13 13 12 11 11 11 11 11 10 11 10 9 9 9 9 8 8
26 25 23 21 19 20 20 19 18 17 14 14 13 12 11 10 10 9 9 8 8 9 9 13 14 14 14 13 11 11 11 10 11 11 10 10 10 9 9 8 8 7 7
30 25 23 22 21 20 20 19 20 18 14 12 12 12 11 10 9 9 8 7 7 8 9 12 15 15 13 12 11 12 11 11 11 12 11 10 9 9 8 8 7 6 6
28 23 22 23 21 20 20 20 17 15 13 12 11 9 10 9 9 8 7 7 6 9 10 9 13 14 12 11 12 12 12 12 12 12 11 12 11 9 7 6 5 5 5
23 25 24 23 21 20 19 19 17 16 13 11 10 9 8 7 8 8 8 9 9 11 12 9 11 13 11 10 11 11 11 11 12 11 12 12 10 7 5 8 4 5 5
23 24 24 22 21 19 17 19 19 14 13 12 10 10 9 8 9 10 11 10 11 12 11 11 15 12 10 10 10 10 9 9 10 10 10 9 7 5 9 12 11 12 14
23 23 22 21 21 21 18 16 15 14 14 13 13 11 10 9 10 11 15 13 11 14 15 14 12 10 8 8 9 9 7 9 9 10 12 12 10 10 10 11 11 13 14
20 21 20 21 20 19 17 16 16 15 15 14 13 12 11 11 11 11 16 13 12 13 12 11 9 8 7 8 10 9 8 9 9 9 8 9 9 9 9 9 11 12 11
17 21 20 20 20 17 15 17 17 15 14 15 13 12 12 12 11 11 14 13 12 11 11 9 7 7 8 8 10 9 8 9 8 7 8 6 7 8 10 11 8 9 11
20 23 22 22 21 19 20 20 18 16 16 13 12 12 13 10 10 11 12 13 11 10 9 7 7 8 8 8 8 8 7 8 7 7 7 6 6 7 9 9 9 8 10
20 25 25 24 21 20 20 20 19 17 16 15 15 14 13 12 11 11 11 13 12 10 8 9 8 9 8 8 7 7 7 7 7 7 6 6 6 9 8 8 8 8 9
19 21 23 24 22 20 19 19 20 20 18 18 18 17 16 14 12 11 11 11 11 10 9 9 9 9 8 7 7 6 7 7 7 6 6 6 6 8 8 8 7 7 8
16 18 22 22 23 21 20 20 20 20 20 21 20 20 18 16 13 12 12 12 10 10 9 10 10 9 8 8 7 7 7 7 6 5 5 6 8 9 7 7 7 7 7
17 19 23 23 25 23 21 21 20 20 21 21 22 22 21 20 17 14 13 13 13 12 12 12 12 10 9 8 7 7 7 7 6 5 5 9 11 9 7 7 7 7 7
17 18 22 23 26 26 25 23 23 22 22 21 22 24 23 22 20 17 16 14 14 14 14 13 12 12 10 11 10 8 7 7 6 6 6 8 14 10 8 8 7 6 6
17 18 21 24 25 28 27 26 25 25 24 23 25 26 25 23 21 20 19 18 16 15 14 14 14 13 11 11 10 9 8 7 6 6 7 9 11 8 8 7 6 5 5
21 20 21 24 26 28 31 30 28 27 26 26 27 28 27 25 24 22 20 20 20 17 16 16 15 14 13 12 10 9 9 8 8 8 9 11 8 8 8 7 7 6 5
17 21 22 25 27 29 33 33 31 29 28 28 28 29 29 28 27 25 24 22 23 21 20 19 18 16 15 14 12 10 9 9 9 9 10 11 11 10 9 8 7 4 4
23 23 22 25 27 31 32 33 32 30 30 31 31 30 31 31 30 29 29 26 25 25 23 22 21 19 18 16 13 11 10 10 9 11 12 12 12 12 11 9 9 6 4
23 23 25 25 27 30 28 28 31 31 32 33 34 32 33 32 31 31 31 30 28 27 26 25 23 22 19 17 13 11 10 10 10 12 13 14 13 13 12 11 9 7 5
21 22 24 29 30 27 26 26 25 30 31 32 36 34 35 33 33 32 34 33 34 32 31 27 26 23 19 19 13 7 8 9 11 13 14 15 15 14 13 12 10 9 7
24 26 25 26 31 30 28 28 23 28 28 32 27 30 36 35 35 35 37 36 37 34 33 32 32 26 21 23 9 4 3 5 11 14 15 16 16 15 14 13 12 11 9
19 23 25 27 27 31 31 28 23 19 21 21 29 32 35 37 38 38 39 39 38 39 38 37 36 33 25 25 18 7 3 5 4 10 15 17 18 18 17 16 15 13 11
10 12 18 24 24 26 30 25 26 23 23 26 27 32 28 34 38 40 40 41 41 40 39 40 39 39 33 24 22 20 9 5 3 2 8 15 17 18 19 18 16 13 11
11 6 6 12 19 21 21 28 29 28 27 27 27 24 28 31 35 40 42 43 43 42 42 42 41 41 39 29 25 14 16 11 8 3 3 6 15 18 18 18 16 13 11
16 16 14 6 6 13 18 21 28 26 26 25 30 28 27 28 32 36 39 43 43 43 43 44 43 42 41 34 31 23 19 8 9 6 2 4 6 11 18 18 16 14 13
Wind_Direction
171 167 170 171 171 170 167 166 158 157 161 148 141 147 148 146 143 141 139 136 135 129 132 129 123 115 107 100 95 96 97 98 96 96 94 91 84 92 95 96 96 90 89
161 163 171 170 167 169 172 170 167 163 161 157 147 140 141 137 138 140 138 139 144 143 149 142 134 125 113 100 93 97 99 98 99 91 86 90 93 90 100 93 93 95 94
161 163 169 168 165 167 167 166 164 162 163 160 151 140 140 138 138 140 137 138 148 159 163 157 144 130 118 105 100 104 100 93 98 89 89 89 85 89 93 96 90 88 86
160 160 164 167 164 167 170 167 162 162 164 173 165 149 141 142 139 140 137 126 148 175 173 160 147 132 120 103 104 102 97 90 103 90 92 88 83 82 90 84 88 91 96
159 164 166 167 167 168 172 166 162 167 174 179 177 168 161 143 140 141 136 130 126 150 155 145 146 133 118 107 110 110 107 104 107 97 92 98 98 83 75 73 97 88 65
161 165 169 171 170 168 171 170 168 173 184 181 182 173 164 153 147 147 144 138 155 150 149 147 132 126 117 116 121 120 114 119 109 95 84 89 93 78 84 71 66 73 68
164 168 170 174 172 170 174 178 185 185 186 185 182 169 165 158 155 155 149 145 140 139 135 132 132 128 129 127 134 129 114 124 117 101 94 82 76 71 68 68 74 72 66
165 170 170 179 179 179 181 190 188 190 187 188 179 166 167 163 162 160 156 152 156 159 139 142 135 132 130 133 145 138 130 134 132 119 107 97 82 70 65 79 85 74 72
167 176 178 180 182 181 180 187 191 187 188 189 186 178 174 172 164 161 162 162 151 151 154 152 147 143 138 144 151 147 140 147 143 129 116 96 89 75 89 94 91 81 76
178 182 185 187 190 188 188 189 194 194 196 198 199 190 188 178 166 162 162 165 164 164 163 159 147 139 143 143 147 155 150 150 146 137 130 110 96 96 103 98 90 88 84
186 188 191 191 194 197 198 192 194 195 193 189 195 197 191 178 168 163 161 160 164 170 164 155 148 152 151 148 155 164 165 159 157 145 130 121 107 118 98 101 104 94 84
188 191 193 197 201 199 199 197 197 197 191 189 196 195 194 185 177 171 166 164 166 166 166 159 163 165 162 160 162 160 177 171 160 151 138 131 133 114 104 105 104 95 86
194 193 200 205 206 204 202 201 200 201 199 198 201 199 195 190 183 180 177 178 177 179 171 168 177 176 173 172 171 163 156 161 166 166 158 144 156 128 114 110 108 103 94
199 203 206 210 210 210 210 207 207 205 204 203 205 200 198 197 197 196 193 192 191 189 186 185 184 186 193 188 180 178 176 179 182 187 177 164 169 145 132 119 116 108 97
207 212 210 214 214 213 214 213 212 212 211 208 204 203 205 207 209 209 208 206 201 197 194 194 193 193 202 198 192 192 193 197 200 199 191 177 174 150 139 133 125 112 101
218 219 216 220 222 219 219 219 218 216 217 214 211 210 213 215 214 215 217 215 210 205 202 201 201 201 197 193 197 201 206 206 204 194 171 159 190 168 145 141 132 118 108
229 221 221 220 226 226 223 225 224 223 222 220 219 219 219 221 220 220 222 219 214 212 208 206 203 201 201 204 207 210 212 210 200 191 183 178 170 184 155 143 134 121 102
240 231 231 229 226 230 227 228 230 229 227 227 226 226 225 225 226 225 225 223 217 214 212 210 207 206 203 205 208 212 213 208 203 197 192 189 189 182 170 163 150 130 102
250 242 235 231 229 236 237 231 233 232 233 235 233 234 231 229 229 229 228 226 221 217 215 214 208 209 206 207 211 213 216 213 210 208 203 197 194 194 193 191 195 195 173
250 245 239 234 233 234 233 228 234 233 238 237 237 235 236 234 232 231 232 228 223 220 217 214 212 209 212 207 204 213 215 215 212 213 210 203 200 201 204 206 208 213 217
249 241 235 232 230 223 217 218 219 220 226 232 237 235 240 236 234 232 232 229 225 223 219 215 210 209 206 199 186 207 221 221 217 213 210 209 207 208 212 213 220 227 238
253 246 242 235 232 225 216 216 215 224 227 228 230 235 240 238 234 231 231 228 225 221 217 215 211 202 204 196 179 145 202 228 225 217 211 211 213 214 218 221 226 234 247
254 249 248 243 234 229 222 220 216 225 224 224 231 231 232 239 236 232 230 227 226 222 220 217 214 211 194 198 197 169 156 220 166 212 214 213 215 217 219 222 226 234 248
280 269 257 250 245 234 227 216 214 217 221 223 225 230 228 234 238 236 234 231 227 225 223 222 220 214 210 195 201 219 217 162 184 197 222 218 221 222 220 219 221 230 242
30 357 277 252 243 240 229 217 217 220 224 226 226 230 229 233 238 238 235 232 229 227 226 227 221 216 215 210 197 190 217 217 215 158 187 204 218 223 218 218 221 230 239
33 35 37 11 284 248 242 234 228 225 224 224 228 229 232 232 238 237 236 234 232 229 226 225 224 221 217 217 214 210 196 181 201 181 160 211 191 213 212 221 227 233 237